Torna al catalogo

STARLINK-33617

AttivoComunicazioniVLEO
NORAD 63373·PAYLOAD·🇺🇸 United States

Lanciato Mar 26, 2025 da Vandenberg Space Force Base

Loading…

Prossimi Passaggi (prossime 24 ore)

TLE

AggiornatoSource: CelesTrak SupGP

Epoca: Sep 15, 2026, 02:46 UTC

1 63373C 25063L   26258.11576389 -.00035663  00000+0 -10536-2 0  2580
2 63373  53.1578 247.1507 0001423  92.4280  70.5845 15.34411500    18

Traccia STARLINK-33617 in tempo reale con AllMySat

Download on the App Store